Location: Aufkirchen
(47.9603°N, 11.3653°E)
Time: 07:45:50
(UTC+01:00)

Transit 2A - Pass Details

Date: 05 December 2020
Orbit: 599 x 960 km, 66.7° (Epoch: 25 January)

Event Time Altitude Azimuth Distance (km) Brightness Sun altitude
Rises 16:24:25 0° 215° (SW) 3,621 11.0 -1.1°
Reaches altitude 10° 16:27:01 10° 216° (SW) 2,663 10.3 -1.5°
Maximum altitude 16:33:18 83° 304° (NW) 923 6.5 -2.4°
Drops below altitude 10° 16:39:11 10° 34° (NE) 2,504 8.1 -3.2°
Enters shadow 16:41:16 - 35° (NE) 3,281 8.7 -3.5°
Sets 16:41:34 0° 35° (NE) 3,392 - -3.6°
